THORAD AGENA D DEB, 42497

Orbit data source: Space-Track

THORAD AGENA D DEB, 42497 is space debris in SSO originally from a launch on Wed, 08 Apr 1970 UTC launched from the Air Force Western Test Range (AFWTR). Debris objects in space refer to the collection of defunct objects orbiting the Earth. Examples of debris include non-operational satellites, rocket bodies, and fragments generated from explosions, collisions, or faulty payload assembly.

Loading next visibility...
Identifier
42497, 1970-025RB
Orbit
SSO
Country
Flag of USUS
Related business
Manufacturer
Unknown
Mission
Spacecraft
Bus & Motor
Unknown
Mass
Unknown
Launch date (UTC)
1970-04-08 (56 years ago)
Launch vehicle
Unknown
Launch site
Air Force Western Test Range (AFWTR)
Object type
Payload
Rocket body
Debris
Shape & HBR
Unknown shape, 0.1 m
Radar Cross Section
Small (<0.1 m²)

Expand to show TLE details & history
Last TLE update: 2 weeks ago

TLE from 2 weeks ago
0 THORAD AGENA D DEB
1 42497U 70025RB  26242.51490490  .00001108  00000-0  78181-3 0  9996
2 42497  99.9889 130.5759 0033455 320.0011  39.8686 14.00193076648488
Epoch: 2026-08-30T12:21Z
TLE epoch observation values (Epoch: 2026-08-30T12:21:27.783Z)
Latitude
-0.00008°
Longitude
-33.49924°
Altitude
877.33 km
Speed
7.423 km/s
True Right ascension
08h 42m 18s
True Declination
0° 00' 00"
Sunlit
Object was in daylight at epoch
Visualization orbit readout
Latitude
Unknown
Longitude
Unknown
Altitude
Unknown
Speed
Unknown
Apparent Right ascension
Unknown
Apparent Declination
Unknown
Sunlit
N/A
Visualization observer readout
Local Sidereal Time
07:42:32
Azimuth
Unknown
Elevation
Unknown
Doppler factor
Unknown
Orbital elements
Apogee altitude
914.694 km
Perigee altitude
866.06 km
Semi-major axis
7,268.514 km
Eccentricity
0.00335
Inclination
99.9889°
RAAN
130.5759°
Arg. of periapsis
320.0011°
True anomaly
40.11514°
Mean anomaly
39.8686°
Eccentric anomaly
39.99179°
Mean motion
3.50247 °/min
Orbital period
102.78 mins
BSTAR
0.00078181
Loading maneuver chart data...
Computing Atmospheric mass density...

Documentation

Showing up to 5 results
|